レモン彗星

C/2022 S4 ( Lemmon )

English version
Home page
Updated on January 3, 2023

---------------------------------------------------------------------

・ プロフィール

発見日 2022年9月19日
発見光度 20.6等
発見者 Mt. Lemmon

・ 写真集

・ 軌道要素

Epoch 2023 Feb. 25.0 TT = JDT 2460000.5
T 2024 July 17.99230 TT                                 Rudenko
q   2.7667971            (2000.0)            P               Q
z  -0.0003008      Peri.  268.33852     +0.14565391     -0.76040188
 +/-0.0000933      Node   220.15477     +0.27310767     -0.58396948
e   1.0008322      Incl.  101.04539     -0.95089281     -0.28419823
>From 132 observations 2022 Aug. 26-Dec. 25, mean residual 0".3.

・ 星図

・ 光度変化

        m1 = 8.0 + 5 logΔ + 10.0 log r

---------------------------------------------------------------------

軌道要素はM.P.E.C. 2022-Y232に掲載されたものです。
星図はステラナビゲータ Ver.10 (アストロアーツ) で作成したものです。
光度グラフはComet for Windowsで作成したものです。

---------------------------------------------------------------------

Copyright(C) Seiichi Yoshida (comet@aerith.net). All rights reserved.